When you browse on this site, cookies collect data to enhance your experience and personalize the content and advertising you see.
Visit our Privacy Policy to learn more. By continuing to use the site, you agree to this use of cookies and data.
  • In Hungary
  • List of Countries
  • For 7 days
  • Water Temperature
  • Satellite Maps
  • Weather Map
  • News
  • Weather Widgets
  • user-avatar
    Login

    Hourly Weather Pamplona

    Today, 18 January, Friday

    Time Temperature Precipitation Wind Pressure Humidity
    00:00 +3°C° 0 mm 1 mps 721 mmHg 96%
    01:00 +3°C° 0 mm 1 mps 721 mmHg 96%
    02:00 +3°C° 0 mm 1 mps 720 mmHg 97%
    03:00 +3°C° 0 mm 1 mps 720 mmHg 97%
    04:00 +2°C° 0 mm 1 mps 720 mmHg 97%
    05:00 +2°C° 0 mm 1 mps 720 mmHg 96%
    06:00 +2°C° 0 mm 1 mps 719 mmHg 96%
    07:00 +3°C° 0 mm 1 mps 719 mmHg 93%
    08:00 +4°C° 0 mm 1 mps 719 mmHg 89%
    09:00 +4°C° 0 mm 1 mps 719 mmHg 86%
    10:00 +5°C° 0 mm 1 mps 719 mmHg 80%
    11:00 +7°C° 0 mm 1 mps 719 mmHg 74%
    12:00 +8°C° 0 mm 1 mps 719 mmHg 69%
    13:00 +8°C° 0 mm 1 mps 719 mmHg 67%
    14:00 +8°C° 0 mm 1 mps 718 mmHg 65%
    15:00 +8°C° 0 mm 1 mps 718 mmHg 64%
    16:00 +7°C° 0 mm 1 mps 718 mmHg 70%
    17:00 +5°C° 0 mm 0 mps 718 mmHg 76%
    18:00 +4°C° 0 mm 0 mps 717 mmHg 82%
    19:00 +3°C° 0 mm 0 mps 717 mmHg 83%
    20:00 +3°C° 0 mm 0 mps 717 mmHg 84%
    21:00 +4°C° 0 mm 1 mps 717 mmHg 85%
    22:00 +4°C° 0 mm 1 mps 718 mmHg 84%
    23:00 +4°C° 0 mm 1 mps 718 mmHg 83%

    Tomorrow, 19 January, Saturday

    Time Temperature Precipitation Wind Pressure Humidity
    00:00 +4°C° 0 mm 1 mps 718 mmHg 82%
    01:00 +4°C° 0.2 mm 1 mps 717 mmHg 83%
    02:00 +4°C° 0.2 mm 1 mps 717 mmHg 84%
    03:00 +4°C° 0.2 mm 1 mps 717 mmHg 85%
    04:00 +4°C° 0 mm 1 mps 717 mmHg 87%
    05:00 +3°C° 0 mm 1 mps 717 mmHg 88%
    06:00 +3°C° 0 mm 1 mps 716 mmHg 89%
    07:00 +4°C° 0 mm 1 mps 716 mmHg 87%
    08:00 +4°C° 0 mm 1 mps 716 mmHg 85%
    09:00 +5°C° 0 mm 1 mps 716 mmHg 84%
    10:00 +6°C° 0 mm 1 mps 716 mmHg 80%
    11:00 +6°C° 0 mm 2 mps 716 mmHg 76%
    12:00 +7°C° 0 mm 2 mps 715 mmHg 72%
    13:00 +7°C° 0.1 mm 2 mps 715 mmHg 72%
    14:00 +7°C° 0.1 mm 2 mps 714 mmHg 72%
    15:00 +5°C° 0.1 mm 3 mps 713 mmHg 72%
    16:00 +5°C° 0.7 mm 3 mps 713 mmHg 77%
    17:00 +4°C° 0.7 mm 3 mps 713 mmHg 81%
    18:00 +4°C° 0.7 mm 3 mps 713 mmHg 85%
    19:00 +4°C° 0.6 mm 3 mps 713 mmHg 87%
    20:00 +4°C° 0.6 mm 2 mps 713 mmHg 88%
    21:00 +4°C° 0.6 mm 2 mps 713 mmHg 89%
    22:00 +5°C° 0.3 mm 1 mps 713 mmHg 91%
    23:00 +5°C° 0.3 mm 1 mps 713 mmHg 92%

    Day after tomorrow, 20 January, Sunday

    Time Temperature Precipitation Wind Pressure Humidity
    00:00 +4°C° 0.3 mm 0 mps 713 mmHg 93%
    01:00 +4°C° 0.3 mm 0 mps 713 mmHg 93%
    02:00 +4°C° 0.3 mm 0 mps 714 mmHg 93%
    03:00 +4°C° 0.3 mm 0 mps 714 mmHg 93%
    04:00 +5°C° 0.1 mm 1 mps 714 mmHg 94%
    05:00 +5°C° 0.1 mm 1 mps 714 mmHg 94%
    06:00 +5°C° 0.1 mm 1 mps 715 mmHg 95%
    07:00 +5°C° 0.1 mm 2 mps 715 mmHg 94%
    08:00 +5°C° 0.1 mm 2 mps 716 mmHg 92%
    09:00 +4°C° 0.1 mm 3 mps 716 mmHg 91%
    10:00 +5°C° 0 mm 3 mps 716 mmHg 86%
    11:00 +6°C° 0 mm 4 mps 716 mmHg 81%
    12:00 +7°C° 0 mm 4 mps 717 mmHg 76%
    13:00 +7°C° 0 mm 4 mps 716 mmHg 76%
    14:00 +7°C° 0 mm 4 mps 716 mmHg 76%
    15:00 +7°C° 0 mm 4 mps 716 mmHg 76%
    16:00 +7°C° 0.1 mm 3 mps 717 mmHg 81%
    17:00 +7°C° 0.1 mm 3 mps 717 mmHg 87%
    18:00 +6°C° 0.1 mm 2 mps 718 mmHg 93%
    19:00 +6°C° 0.1 mm 2 mps 718 mmHg 92%
    20:00 +5°C° 0.1 mm 3 mps 719 mmHg 91%
    21:00 +5°C° 0.1 mm 3 mps 719 mmHg 91%
    22:00 +4°C° 0.1 mm 3 mps 719 mmHg 92%
    23:00 +4°C° 0.1 mm 3 mps 719 mmHg 93%

    21 January, Monday

    Time Temperature Precipitation Wind Pressure Humidity
    00:00 +4°C° 0.1 mm 3 mps 720 mmHg 94%
    01:00 +4°C° 0 mm 2 mps 720 mmHg 94%
    02:00 +4°C° 0 mm 2 mps 720 mmHg 94%
    03:00 +4°C° 0 mm 2 mps 720 mmHg 94%
    04:00 +4°C° 0.1 mm 2 mps 721 mmHg 94%
    05:00 +3°C° 0.1 mm 3 mps 721 mmHg 94%
    06:00 +3°C° 0.1 mm 3 mps 721 mmHg 94%
    07:00 +3°C° 0.1 mm 3 mps 722 mmHg 92%
    08:00 +4°C° 0.1 mm 3 mps 722 mmHg 90%
    09:00 +4°C° 0.1 mm 4 mps 723 mmHg 88%
    10:00 +4°C° 0.2 mm 4 mps 723 mmHg 86%
    11:00 +3°C° 0.2 mm 5 mps 723 mmHg 84%
    12:00 +3°C° 0.2 mm 5 mps 724 mmHg 81%
    13:00 +3°C° 0.1 mm 5 mps 724 mmHg 81%
    14:00 +3°C° 0.1 mm 5 mps 724 mmHg 81%
    15:00 +3°C° 0.1 mm 5 mps 723 mmHg 81%
    16:00 +2°C° 0 mm 5 mps 724 mmHg 83%
    17:00 +1°C° 0 mm 5 mps 724 mmHg 85%
    18:00 +1°C° 0 mm 4 mps 724 mmHg 87%
    19:00 0°C° 0 mm 4 mps 725 mmHg 87%
    20:00 0°C° 0 mm 4 mps 725 mmHg 88%
    21:00 +1°C° 0 mm 3 mps 726 mmHg 88%
    22:00 0°C° 0 mm 3 mps 725 mmHg 90%
    23:00 0°C° 0 mm 3 mps 725 mmHg 92%

    22 January, Tuesday

    Time Temperature Precipitation Wind Pressure Humidity
    00:00 -1°C° 0 mm 2 mps 725 mmHg 93%
    01:00 -1°C° 0 mm 2 mps 725 mmHg 93%
    02:00 +1°C° 0 mm 2 mps 724 mmHg 94%
    03:00 +1°C° 0 mm 2 mps 724 mmHg 94%
    04:00 +1°C° 0 mm 2 mps 724 mmHg 93%
    05:00 +2°C° 0 mm 2 mps 724 mmHg 93%
    06:00 +3°C° 0 mm 2 mps 723 mmHg 93%
    07:00 +3°C° 0 mm 2 mps 723 mmHg 91%
    08:00 +5°C° 0 mm 1 mps 723 mmHg 90%
    09:00 +5°C° 0 mm 1 mps 723 mmHg 89%
    10:00 +5°C° 0.1 mm 2 mps 722 mmHg 84%
    11:00 +6°C° 0.1 mm 2 mps 721 mmHg 80%
    12:00 +7°C° 0.1 mm 3 mps 720 mmHg 75%
    13:00 +7°C° 0.7 mm 3 mps 720 mmHg 77%
    14:00 +5°C° 0.7 mm 3 mps 719 mmHg 80%
    15:00 +5°C° 0.7 mm 3 mps 718 mmHg 83%
    16:00 +4°C° 0.6 mm 3 mps 718 mmHg 86%
    17:00 +4°C° 0.6 mm 3 mps 718 mmHg 89%
    18:00 +4°C° 0.6 mm 3 mps 717 mmHg 92%
    19:00 +4°C° 0.8 mm 4 mps 717 mmHg 92%
    20:00 +4°C° 0.8 mm 4 mps 717 mmHg 92%
    21:00 +4°C° 0.8 mm 4 mps 717 mmHg 93%
    22:00 +4°C° 0.9 mm 4 mps 717 mmHg 92%
    23:00 +4°C° 0.9 mm 4 mps 716 mmHg 92%

    23 January, Wednesday

    Time Temperature Precipitation Wind Pressure Humidity
    00:00 +4°C° 0.9 mm 4 mps 716 mmHg 91%
    01:00 +4°C° 0.6 mm 4 mps 716 mmHg 91%
    02:00 +3°C° 0.6 mm 5 mps 715 mmHg 91%
    03:00 +3°C° 0.6 mm 5 mps 715 mmHg 91%
    04:00 +3°C° 0.5 mm 5 mps 714 mmHg 91%
    05:00 +3°C° 0.5 mm 5 mps 713 mmHg 91%
    06:00 +3°C° 0.5 mm 5 mps 712 mmHg 91%
    07:00 +4°C° 1.4 mm 6 mps 712 mmHg 91%
    08:00 +4°C° 1.4 mm 7 mps 712 mmHg 90%
    09:00 +5°C° 1.4 mm 8 mps 711 mmHg 90%
    10:00 +5°C° 1.8 mm 9 mps 711 mmHg 89%
    11:00 +5°C° 1.8 mm 9 mps 710 mmHg 88%
    12:00 +5°C° 1.8 mm 9 mps 710 mmHg 88%
    13:00 +5°C° 1.4 mm 9 mps 709 mmHg 88%
    14:00 +6°C° 1.4 mm 9 mps 708 mmHg 88%
    15:00 +6°C° 1.4 mm 9 mps 708 mmHg 88%
    16:00 +5°C° 2.5 mm 8 mps 707 mmHg 90%
    17:00 +5°C° 2.5 mm 8 mps 707 mmHg 91%
    18:00 +5°C° 2.5 mm 7 mps 706 mmHg 92%
    19:00 +5°C° 2.8 mm 8 mps 706 mmHg 92%
    20:00 +5°C° 2.8 mm 9 mps 706 mmHg 92%
    21:00 +3°C° 2.8 mm 9 mps 706 mmHg 91%
    22:00 +2°C° 1.2 mm 10 mps 707 mmHg 88%
    23:00 +1°C° 1.2 mm 10 mps 707 mmHg 85%
    Show more